This is the latest recevied weather packets stored in our database for station/object IK5UIK-3. If no packets are shown the sender has not sent any weather packets the latest 10 day(s).
| Time | Temp. | Humidity | Pressure | Rain* | Wind** | Luminosity | Snow |
|---|---|---|---|---|---|---|---|
| 1787569183 | 32.78° C | 48% | 1010.1 hPa | 0 mm | - | - | - |
| 1787568879 | 32.78° C | 48% | 1010.2 hPa | 0 mm | - | - | - |
| 1787568519 | 32.22° C | 49% | 1010.2 hPa | 0 mm | - | - | - |
| 1787568284 | 32.22° C | 49% | 1010.2 hPa | 0 mm | - | - | - |
| 1787568159 | 32.22° C | 49% | 1010.3 hPa | 0 mm | - | - | - |
| 1787567983 | 32.22° C | 50% | 1010.3 hPa | 0 mm | - | - | - |
| 1787567799 | 32.22° C | 50% | 1010.3 hPa | 0 mm | - | - | - |
| 1787567686 | 32.22° C | 50% | 1010.4 hPa | 0 mm | - | - | - |
| 1787567439 | 32.22° C | 50% | 1010.4 hPa | 0 mm | - | - | - |
| 1787567383 | 32.22° C | 50% | 1010.4 hPa | 0 mm | - | - | - |
| 1787567079 | 32.22° C | 50% | 1010.5 hPa | 0 mm | - | - | - |
| 1787566782 | 32.22° C | 50% | 1010.5 hPa | 0 mm | - | - | - |
| 1787566719 | 32.22° C | 50% | 1010.6 hPa | 0 mm | - | - | - |
| 1787566482 | 32.22° C | 51% | 1010.6 hPa | 0 mm | - | - | - |
| 1787566359 | 32.22° C | 52% | 1010.5 hPa | 0 mm | - | - | - |
| 1787565999 | 31.67° C | 52% | 1010.6 hPa | 0 mm | - | - | - |
| 1787565639 | 31.11° C | 52% | 1010.7 hPa | 0 mm | - | - | - |
| 1787565279 | 31.11° C | 52% | 1010.7 hPa | 0 mm | - | - | - |
| 1787564919 | 31.67° C | 52% | 1010.8 hPa | 0 mm | - | - | - |
| 1787564559 | 31.11° C | 53% | 1010.8 hPa | 0 mm | - | - | - |
| 1787564199 | 31.11° C | 54% | 1011 hPa | 0 mm | - | - | - |
| 1787564082 | 31.11° C | 54% | 1011 hPa | 0 mm | - | - | - |
| 1787563839 | 30.56° C | 54% | 1011.1 hPa | 0 mm | - | - | - |
| 1787563782 | 30.56° C | 55% | 1011.2 hPa | 0 mm | - | - | - |
| 1787563479 | 31.11° C | 54% | 1010.9 hPa | 0 mm | - | - | - |
* Rain latest hour (hover to see other rain measurements)
** Current wind speed in m/s (hover to see current wind gust speed)